METEOR 2-17 DEB, 35367

Orbit data source: Space-Track

METEOR 2-17 DEB, 35367 is space debris in LEO originally from a launch on Sat, 30 Jan 1988 UTC launched from the Plesetsk Missile And Space Complex (PKMTR). Debris objects in space refer to the collection of defunct objects orbiting the Earth. Examples of debris include non-operational satellites, rocket bodies, and fragments generated from explosions, collisions, or faulty payload assembly.

Loading next visibility...
Identifier
35367, 1988-005AB
Orbit
LEO
Country
Flag of CISCIS
Related business
Manufacturer
Unknown
Mission
Spacecraft
Bus & Motor
Unknown
Mass
Unknown
Launch date (UTC)
1988-01-30 (38 years ago)
Launch vehicle
Unknown
Launch site
Plesetsk Missile And Space Complex (PKMTR)
Object type
Payload
Rocket body
Debris
Shape & HBR
Unknown shape, 0.1 m
Radar Cross Section
Small (<0.1 m²)

Expand to show TLE details & history
Last TLE update: 4 days ago

TLE from 4 days ago
0 METEOR 2-17 DEB
1 35367U 88005AB  25348.95557082  .00001365  00000-0  93391-3 0  9991
2 35367  82.5180  54.8862 0017468 138.7366  40.8054 13.98969208307920
Epoch: 2025-12-14T22:56Z
TLE epoch observation values (Epoch: 2025-12-14T22:56:01.318Z)
Latitude
0.20961°
Longitude
166.99226°
Altitude
890.649 km
Speed
7.412 km/s
True Right ascension
15h 39m 26s
True Declination
0° 12' 30"
Sunlit
Object was in daylight at epoch
Visualization orbit readout
Latitude
Unknown
Longitude
Unknown
Altitude
Unknown
Speed
Unknown
Apparent Right ascension
Unknown
Apparent Declination
Unknown
Sunlit
N/A
Visualization observer readout
Local Sidereal Time
21:11:23
Azimuth
Unknown
Elevation
Unknown
Doppler factor
Unknown
Orbital elements
Apogee altitude
907.203 km
Perigee altitude
881.796 km
Semi-major axis
7,272.636 km
Eccentricity
0.00175
Inclination
82.518°
RAAN
54.8862°
Arg. of periapsis
138.7366°
True anomaly
40.93642°
Mean anomaly
40.8054°
Eccentric anomaly
40.87089°
Mean motion
3.49949 °/min
Orbital period
102.87 mins
BSTAR
0.00093391
Loading maneuver chart data...
Computing Atmospheric mass density...
Loading historical data...
Loading historical data...
Loading historical data...
Loading historical data...
Loading historical data...
Loading historical data...
Loading historical data...

Documentation

Showing up to 5 results
|